Regional Weather Roundup
Issued by NWS Pendleton, OR

Home | Current Version | Previous Version | Text Only | Print | Product List | Glossary On
Versions: 1 2 3 4 5 6 7 8 9 10 11 12 13 14 15 16 17 18 19 20 21 22 23 24 25 26 27 28 29 30 31 32 33 34 35 36 37 38 39 40 41 42 43 44 45 46 47 48 49 50
919
ASUS46 KPDT 280725
RWRPDT
PENDLETON REGIONAL WEATHER ROUNDUP
NATIONAL WEATHER SERVICE PENDLETON OREGON
1200 AM PDT SUN AUG 28 2016

NOTE: FAIR INDICATES FEW OR NO CLOUDS BELOW 12,000 FEET WITH NO
SIGNIFICANT WEATHER AND/OR OBSTRUCTIONS TO VISIBILITY.

# INDICATES UNOFFICIAL STATION AND DATA

WAZ520-280810-
EAST SLOPES OF WASHINGTON CASCADES

CITY            SKY/WX      TMP DP  RH  WIND    PRES   REMARKS
#CLE ELUM HS    N/A         58  47  67  CALM    29.92R
#CLE ELUM 2NW   N/A         57  45  64  SW5     N/A
#GLENWOOD       N/A         56  47  72  CALM    29.88R
#MANASTASH CYN  N/A         53  42  66  CALM    29.95R
#NELSON 3SW     N/A         51  46  83  CALM    30.07R
#NILE           N/A         55  46  72  CALM    29.18R
#RONALD 2NW     N/A         55  N/A N/A N3      29.88R
#TEANAWAY 4NE   N/A         59  48  67  W2      N/A
#TROUT LAKE 1NE N/A         59  44  57  SW6     29.90R
$$

WAZ521-280810-
SIMCOE HIGHLANDS

CITY            SKY/WX      TMP DP  RH  WIND    PRES   REMARKS
#CENTERVILLE 1SWN/A         67  45  45  W12     29.83R
#GOLDENDALE 1NE N/A         65  31  28  W1      N/A
#GOLDENDALE 4W  N/A         67  50  54  W9      29.98R
#GOODNOE HILLS  N/A         69  52  55  W10     29.86R
#LYLE 6NE       N/A         66  49  54  SW7     29.85R
$$

WAZ026-280810-
KITTITAS VALLEY

CITY            SKY/WX      TMP DP  RH  WIND    PRES   REMARKS
ELLENSBURG AP   MOCLDY      62  47  58  NW21    29.93R
#ELLENSBURG CWU N/A         60  48  64  NW9     29.80S
#ELLENSBURG 3NE N/A         59  48  67  N8      29.92R
#ELLENSBURG     N/A         63  51  65  W3      N/A
#ELLENSBURG 1E  N/A         60  N/A N/A W1      N/A
#KITTITAS 4N    N/A         60  46  60  NW6     29.89R
#KITTITAS 3S    N/A         61  49  65  W5      29.85R
#THORP 6N       N/A         57  46  67  W10G25  29.88R
$$

WAZ027-280810-
YAKIMA VALLEY

CITY            SKY/WX      TMP DP  RH  WIND    PRES   REMARKS
SUNNYSIDE AP    N/A         61  49  65  W6      29.88R
YAKIMA AIRPORT  MOCLDY      65  45  48  NW6     29.91R
YAKIMA-VAGABOND N/A         65  45  48  N8      29.91R
#DONALD 2NE     N/A         64  27  24  CALM    28.75R
#GRANDVIEW      N/A         68  45  44  NW1     29.86R
#MABTON         N/A         69  50  51  CALM    29.88R
#NACHES 2SW     N/A         60  49  67  W5      29.94R
#TERRACE HTS    N/A         65  46  50  NW7     29.81R
#TOPPENISH      N/A         65  48  54  NW1     29.78R
#WEST VALLEY    N/A         65  45  48  NW5     29.84R
#WHITE SWAN 5E  N/A         60  43  53  S1      29.86R
#WILEY CITY 3W  N/A         57  36  45  CALM    29.89R
$$

WAZ028-280810-
LOWER COLUMBIA BASIN...WASHINGTON

CITY            SKY/WX      TMP DP  RH  WIND    PRES   REMARKS
PASCO           MOCLDY      68  46  45  S5      29.88R
PROSSER AWOS    N/A         64  48  56  W7      29.92R
RICHLAND AWOS   MOCLDY      67  47  49  CALM    29.88R
#BENTON CITY    N/A         64  44  48  SW1     29.75R
#CONNELL 5N     N/A         62  46  56  W5      29.83R
#CONNELL 5NW    N/A         61  47  60  W2      29.79R
#ELTOPIA 6NW    N/A         65  48  54  CALM    28.86R
#KAHLOTUS       N/A         68  43  40  NW17G26 29.80R
#KENNEWICK 3S   N/A         67  46  47  N1      29.85R
#PATERSON       N/A         70  49  47  N5      29.83R
#SAGEMOOR 2W    N/A         68  47  47  W5      29.70R
#TOUCHET 2S     N/A         72  51  48  SW8     29.83R
#WEST PASCO     N/A         66  47  50  CALM    29.85R
$$

WAZ029-280810-
FOOTHILLS OF THE BLUES...WASHINGTON

CITY            SKY/WX      TMP DP  RH  WIND    PRES   REMARKS
WALLA WALLA AP  PTCLDY      71  49  46  SW12    29.91R BLWG DUST
#CLYDE 6NW      N/A         66  43  43  SW6     29.82R
#DAYTON SCHOOL  N/A         70  46  42  N5      29.91R
#LOWDEN 2SE     N/A         72  52  49  W8      29.85R
#PLEASANT VIEW 1N/A         64  44  48  SW7     29.84R
#PRESCOTT       N/A         61  46  58  CALM    29.84R
#WHITMAN COLLEGEN/A         72  51  48  S5      29.90R
#WAITSBURG 8N   N/A         61  15  16  S2      29.88R
#WALLA WALLA U  N/A         73  51  46  CALM    29.85R
#WHITMAN MISSIONN/A         73  51  46  W6      29.86R
$$

WAZ030-280810-
BLUE MOUNTAINS...WASHINGTON

CITY            SKY/WX      TMP DP  RH  WIND    PRES   REMARKS
#DIXIE 5SE      N/A         64  48  56  S15     29.91R
$$

ORZ009-041-WAZ024-280810-
COLUMBIA RIVER GORGE

CITY            SKY/WX      TMP DP  RH  WIND    PRES   REMARKS
HOOD RIVER AP   PTCLDY      66  52  61  NW12    29.95R
THE DALLES AP   CLOUDY      72  53  51  NW12    29.92R
#ARLINGTON AIRPON/A         72  53  51  W13     29.86R
#LYLE           N/A         70  55  59  W18G26  29.91R
#MARYHILL 2W    N/A         N/A N/A N/A CALM    N/A
#MOSIER 1S      N/A         66  39  37  N9      29.94R
#MURDOCK        N/A         71  55  57  W8      29.88R
#RUFUS DOT      N/A         76  50  40  W16     N/A
#SMITHVILLE     N/A         71  54  55  NW12    29.90R

$$

ORZ510-280810-
NORTH CENTRAL OREGON

CITY            SKY/WX      TMP DP  RH  WIND    PRES   REMARKS
#ANTELOPE       N/A         63  45  52  CALM    29.71R
#COW CYN RST AREN/A         69  N/A N/A W8      N/A
#DUFUR 9E       N/A         62  54  75  E7      29.91R
#GRASS VALLEY 1SN/A         63  54  72  NW3     29.93R
#KENT DOT       N/A         65  46  50  N14     N/A
#MAUPIN SCHOOL  N/A         74  57  55  W5      29.96R
#SHANIKO 5WSW   N/A         64  42  45  N13     N/A
#TYGH VALLEY 2NEN/A         71  52  51  N1      29.86R
#WAPANITIA AIRPON/A         69  53  57  NW8     29.86R
#WASCO DOT      N/A         69  56  63  W6      N/A
#WASCO 5NE      N/A         67  52  59  SW7     29.87R
$$

ORZ511-280810-
CENTRAL OREGON

CITY            SKY/WX      TMP DP  RH  WIND    PRES   REMARKS
BEND AIRPORT    PTCLDY      61  41  48  CALM    30.03R
MADRAS AIRPORT  MOCLDY      68  45  44  E6      30.00R
PRINEVILLE AP   PTCLDY      63  41  44  SW7     30.03R
REDMOND AIRPORT PTCLDY      67  39  36  N5      30.01R
#ASHWOOD SCHOOL N/A         65  41  41  CALM    29.95R
#BEND 1SW       N/A         64  43  46  SW1     N/A
#BEND-AWBREY    N/A         62  43  50  S3      29.86R
#CULVER         N/A         70  45  41  S2      29.80R
#CULVER 8W      N/A         71  44  38  S2      30.00R
#LAKE BILLY CHINN/A         72  N/A N/A SW6     30.02R
#MADRAS 4S      N/A         65  11  12  SW10    30.06R
#POWELL BUTTE 3EN/A         66  45  47  W5      N/A
#POWELL BUTTE   N/A         62  41  46  S1      29.91R
#PRINEVILLE 3N  N/A         68  45  44  W3      29.95R
#WARM SPRINGS   N/A         69  47  45  CALM    29.93R

$$


ORZ509-280810-
EAST SLOPES OF OREGON CASCADES

CITY            SKY/WX      TMP DP  RH  WIND    PRES   REMARKS
SISTERS AWOS    N/A         72  41  33  SW14G25 29.99R
#BLUE BOX PASS  N/A         56  N/A N/A NW1     N/A
#CAMP SHERMAN   N/A         64  45  50  CALM    29.92R
#LA PINE DOT    N/A         55  41  59  CALM    N/A
#LA PINE 4NW    N/A         54  41  61  CALM    29.96S
#LAVA BUTTE DOT N/A         61  42  50  CALM    N/A
#SISTERS AIRPOR N/A         71  51  49  N14     30.17S
#SISTERS ODOT   N/A         72  N/A N/A SE6     N/A
#SISTERS 3N     N/A         66  39  37  CALM    29.96R
#SUNRIVER       N/A         61  43  51  CALM    29.93R
#SUTTLE LK DOT  N/A         59  46  62  W3      N/A
#TUMALO 3W      N/A         64  42  45  CALM    29.73R
#WANOGA BUTTE D N/A         56  38  51  NE3     N/A

$$

ORZ044-280810-
LOWER COLUMBIA BASIN...OREGON

CITY            SKY/WX      TMP DP  RH  WIND    PRES   REMARKS
HERMISTON       CLOUDY      73  52  48  W9      29.88R
#BOARDMAN SCHOOLN/A         74  55  51  W7      29.87R
#ECHO 8SW       N/A         73  52  48  W10     29.90R
#I-84 EX 198 DOTN/A         72  54  53  E16     N/A
#UMATILLA       N/A         71  51  49  CALM    29.79R
$$

ORZ507-280810-
NORTHERN FOOTHILLS OF THE BLUES

CITY            SKY/WX      TMP DP  RH  WIND    PRES   REMARKS
PENDLETON AIRPT MOCLDY      71  50  47  SW15    29.92R
#ADAMS 3WNW     N/A         67  50  54  W5      29.86R
#ATHENA         N/A         69  51  53  SW2     29.88R
#CAYUSE         N/A         71  52  51  SW9     29.85R
#HELIX SCHOOL   N/A         67  49  52  N5      29.86R
#HELIX 3N       N/A         66  48  52  N7      29.92R
#HELIX 6SW      N/A         67  49  52  CALM    29.92R
#HOLDMAN 5SE    N/A         67  51  56  S1      29.92R
#HOLDMAN 6E     N/A         67  50  54  NE6     29.67R
#M-FREEWATER 5SEN/A         71  51  49  SW7     29.92R
#PDT AQUATIC CTRN/A         71  46  41  S3      29.96R
#PDT SUNRIDGE   N/A         69  51  53  S3      29.93R
#PENDLETON 7NW  N/A         71  54  55  W8      32.43S
#PILOT ROCK 1S  N/A         69  48  47  SE5     29.96R
#PILOT ROCK     N/A         67  48  50  W2      29.96R
#TUTUILLA       N/A         69  51  53  CALM    29.90R
#UMAPINE 2E     N/A         72  52  49  SW7     29.86R
#WESTON SCHOOL  N/A         69  48  47  N12     29.80R

$$

ORZ508-280810-
SOUTHERN FOOTHILLS OF THE BLUES

CITY            SKY/WX      TMP DP  RH  WIND    PRES   REMARKS
LEXINGTON       PTCLDY      70  54  57  SW17    29.98R
#AJAX           N/A         65  49  56  SW7     27.73R
#CONDON SCHOOL  N/A         63  52  67  N2      29.96R
#CONDON 5W      N/A         60  50  69  NW6     29.99R
#FOSSIL SCHOOL  N/A         61  47  60  CALM    29.95R
#HEPPNER EOC    N/A         67  53  61  W2      29.81R
#HEPPNER 4NE    N/A         63  52  67  W7      29.85R
#LEXINGTON 2SE  N/A         70  54  57  W7      29.91R
#MIKKALO        N/A         68  53  59  NW13    30.07R
#OLEX 4N        N/A         70  56  61  W15     29.91R
#RUGGS 5NE      N/A         62  52  70  W7      30.17R
#RUGGS 2SW      N/A         62  49  62  SW3     29.87R

$$

ORZ502-503-280810-
BLUE MOUNTAINS

CITY            SKY/WX      TMP DP  RH  WIND    PRES   REMARKS
MEACHAM         PTCLDY      60  44  55  CALM    30.04R
#BATTLE MTN DOT N/A         58  48  69  CALM    N/A
#CUTSFORTH PARK N/A         52  45  77  CALM    29.83R
#HARDMAN 10S    N/A         55  46  72  CALM    29.96R
#HEPPNER 15SE   N/A         56  48  74  E2      29.96R
#LADD CYN SMT   N/A         65  47  52  NW8     N/A
#LADD CREEK ODOTN/A         67  47  49  NW1     N/A
#LONG CREEK HS  N/A         56  44  64  SW2     30.04R
#N POWDER DOT   N/A         65  49  56  NE14    N/A
#PIKES PEAK     N/A         62  47  58  SW21G28 27.99S
#TOLLGATE       N/A         54  47  77  SW3     29.93R
#TROY SCHOOL    N/A         75  49  40  S5      29.66R
#UKIAH          N/A         56  46  69  CALM    29.83R
#WESTON 4E      N/A         63  49  60  SW6     29.80R
$$

ORZ505-280810-
JOHN DAY BASIN

CITY            SKY/WX      TMP DP  RH  WIND    PRES   REMARKS
JOHN DAY        PTCLDY      67  41  39  CALM    30.04R
#DAYVILLE SCHOOLN/A         72  40  31  CALM    29.94R
#MITCHELL       N/A         63  46  54  CALM    30.18R
#MITCHELL 8NW   N/A         66  40  38  CALM    30.01R
#MONUMENT HS    N/A         69  44  40  E1      29.84R
#MT. VERNON 5SE N/A         63  41  44  CALM    30.00R
#SPRAY SCHOOL   N/A         69  N/A N/A CALM    N/A
$$

ORZ506-280810-
OCHOCO AND JOHN DAY HIGHLANDS

CITY            SKY/WX      TMP DP  RH  WIND    PRES   REMARKS
#BUCK CREEK DOT N/A         65  42  43  SW7     N/A
#HORSE RIDGE DO N/A         57  37  47  SW1     N/A
#KEYES SMT DOT  N/A         63  39  41  SW21G28 N/A
#PAULINA SCHOOL N/A         65  40  40  SW1     N/A
#PINE MTN OBS   N/A         58  38  47  W7      N/A
#SENECA         N/A         57  N/A N/A N1      N/A
#SENECA 9NW     N/A         53  36  52  CALM    29.88R
$$

ORZ049-280810-
GRANDE RONDE VALLEY

CITY            SKY/WX      TMP DP  RH  WIND    PRES   REMARKS
LA GRANDE       PTCLDY      66  39  37  NW8     29.98R
#COVE           N/A         60  49  67  NW1     30.03R
#COVE SCHOOL    N/A         60  46  60  CALM    30.02R
#COVE 6NW       N/A         66  47  50  CALM    29.86R
#ELGIN 3N       N/A         68  41  37  S7      29.96R
#ELGIN 1E       N/A         68  43  40  CALM    N/A
#IMBLER SCHOOL  N/A         68  43  40  W7      29.95R
#ISLAND CITY 4N N/A         57  52  83  CALM    30.01R
#LADD CYN DOT   N/A         66  47  50  SE3     N/A
#LA GRANDE ELEM N/A         67  47  49  W3      30.00R
#UNION 1S       N/A         69  48  47  W1      29.77R
$$

ORZ050-280810-
WALLOWA COUNTY

CITY            SKY/WX      TMP DP  RH  WIND    PRES   REMARKS
JOSEPH AIRPORT  PTCLDY      54  41  61  S3      30.01R
#IMNAHA SCHOOL  N/A         57  41  55  N3      30.20S
#IMNAHA 10S     N/A         65  41  41  SW5     29.96R
#JOSEPH 3W      N/A         58  43  57  W2      29.88S
#LOSTINE        N/A         68  44  42  CALM    29.64R
#LOSTINE 3SE    N/A         60  42  51  N3      29.97R
#MT HOWARD 8000 N/A         52  37  56  N1      30.23S
#PROMISE 1S     N/A         64  45  50  E10     29.89R
#WALLOWA SCHOOL N/A         70  46  42  W1      29.93R



$$



USA.gov is the U.S. government's official web portal to all federal, state and local government web resources and services.